Low Moor, IA

1:29 AM CST on January 21, 2017 (GMT -0600)
Clinton

Weather History for KCWI - March, 2012

Change the Weather History Date:

Wednesday, March 21, 2012

  Actual Average Record
Temperature  
Mean Temperature 70 °F -  
Max Temperature 82 °F 49 °F 82 °F (2012)
Min Temperature 57 °F 30 °F 6 °F (1960)
Cooling Degree Days 4    
Growing Degree Days 20 (Base 50)    
Moisture  
Dew Point 52 °F    
Average Humidity 55    
Maximum Humidity 88    
Minimum Humidity 30    
Precipitation  
Precipitation 0.00 in - - ()
Sea Level Pressure  
Sea Level Pressure 30.02 in    
Wind  
Wind Speed 8 mph (SSE)    
Max Wind Speed 18 mph    
Max Gust Speed 30 mph    
Visibility 10 miles    
Events      
Averages and records for this station are not official NWS values.
T = Trace of Precipitation, MM = Missing Value Source: NWS Daily Summary

Daily Weather History Graph

Daily Weather History Graph

Search for Another Location

Airport or City:

Trip Planner

Search our weather history database for the weather conditions in past years. The results will help you decide how hot, cold, wet, or windy it might be!

Date:

Astronomy

Mar. 21, 2012 Rise Set
Actual Time 7:02 AM CDT 7:15 PM CDT
Civil Twilight 6:34 AM CDT 7:43 PM CDT
Nautical Twilight 6:01 AM CDT 8:15 PM CDT
Astronomical Twilight 5:28 AM CDT 8:49 PM CDT
Moon 6:13 AM CDT 6:42 PM CDT
Length of Visible Light 13h 08m
Length of Day
12h 13m
Waning Crescent, 1% of the Moon is Illuminated
Mar 21
Waning Crescent
Mar 22
New
Mar 30
First Quarter
Apr 6
Full
Apr 13
Last Quarter

Hourly Weather History & Observations

Time (CDT) Temp. Heat Index Dew Point Humidity Pressure Visibility Wind Dir Wind Speed Gust Speed Precip Events Conditions
12:15 AM 66.2 °F - 48.2 °F 52% 29.99 in 10.0 mi SE 10.4 mph - N/A   Overcast
12:35 AM 66.2 °F - 50.0 °F 56% 29.99 in 10.0 mi SSE 9.2 mph - N/A   Overcast
12:55 AM 66.2 °F - 48.2 °F 52% 29.98 in 10.0 mi South 3.5 mph - N/A   Mostly Cloudy
1:35 AM 62.6 °F - 48.2 °F 59% 29.99 in 10.0 mi Calm Calm - N/A   Partly Cloudy
1:55 AM 62.6 °F - 48.2 °F 59% 29.99 in 10.0 mi Calm Calm - N/A   Scattered Clouds
2:15 AM 62.6 °F - 50.0 °F 63% 29.99 in 10.0 mi East 3.5 mph - N/A   Scattered Clouds
2:55 AM 62.6 °F - 50.0 °F 63% 29.99 in 10.0 mi Calm Calm - N/A   Overcast
3:15 AM 62.6 °F - 51.8 °F 68% 29.99 in 10.0 mi SSE 4.6 mph - N/A   Overcast
3:35 AM 62.6 °F - 51.8 °F 68% 29.99 in 10.0 mi SSE 4.6 mph - N/A   Partly Cloudy
3:55 AM 62.6 °F - 51.8 °F 68% 29.98 in 10.0 mi SSE 6.9 mph - N/A   Clear
4:15 AM 60.8 °F - 51.8 °F 72% 29.98 in 10.0 mi SE 10.4 mph - N/A   Clear
4:35 AM 62.6 °F - 51.8 °F 68% 29.99 in 10.0 mi SSE 9.2 mph - N/A   Clear
4:55 AM 60.8 °F - 50.0 °F 68% 30.00 in 10.0 mi SSW 4.6 mph - N/A   Clear
5:15 AM 60.8 °F - 50.0 °F 68% 30.00 in 10.0 mi Calm Calm - N/A   Clear
5:35 AM 60.8 °F - 50.0 °F 68% 30.00 in 10.0 mi Calm Calm - N/A   Clear
5:55 AM 59.0 °F - 50.0 °F 72% 30.01 in 10.0 mi Calm Calm - N/A   Clear
6:15 AM 57.2 °F - 50.0 °F 77% 30.02 in 10.0 mi East 3.5 mph - N/A   Clear
6:35 AM 57.2 °F - 50.0 °F 77% 30.02 in 10.0 mi SE 4.6 mph - N/A   Clear
6:55 AM 57.2 °F - 51.8 °F 82% 30.03 in 10.0 mi SE 4.6 mph - N/A   Clear
7:35 AM 57.2 °F - 51.8 °F 82% 30.05 in 10.0 mi Calm Calm - N/A   Clear
7:55 AM 57.2 °F - 53.6 °F 88% 30.06 in 10.0 mi ESE 4.6 mph - N/A   Clear
8:15 AM 59.0 °F - 53.6 °F 82% 30.06 in 10.0 mi East 3.5 mph - N/A   Clear
8:35 AM 64.4 °F - 55.4 °F 73% 30.06 in 10.0 mi SE 9.2 mph - N/A   Clear
8:55 AM 66.2 °F - 55.4 °F 68% 30.06 in 10.0 mi SE 9.2 mph - N/A   Clear
9:15 AM 66.2 °F - 55.4 °F 68% 30.07 in 10.0 mi SSE 9.2 mph - N/A   Clear
9:35 AM 68.0 °F - 55.4 °F 64% 30.07 in 10.0 mi South 13.8 mph - N/A   Clear
9:55 AM 69.8 °F - 55.4 °F 60% 30.07 in 10.0 mi South 11.5 mph - N/A   Clear
10:15 AM 69.8 °F - 55.4 °F 60% 30.07 in 10.0 mi South 10.4 mph - N/A   Clear
10:35 AM 71.6 °F - 55.4 °F 57% 30.06 in 10.0 mi South 12.7 mph 17.3 mph N/A   Clear
10:55 AM 73.4 °F - 57.2 °F 57% 30.06 in 10.0 mi SSW 11.5 mph - N/A   Clear
11:15 AM 73.4 °F - 55.4 °F 53% 30.06 in 10.0 mi SSE 9.2 mph - N/A   Clear
11:35 AM 73.4 °F - 55.4 °F 53% 30.05 in 10.0 mi SSE 5.8 mph - N/A   Clear
11:55 AM 77.0 °F - 57.2 °F 50% 30.05 in 10.0 mi South 13.8 mph - N/A   Clear
12:15 PM 75.2 °F - 55.4 °F 50% 30.04 in 10.0 mi South 11.5 mph - N/A   Clear
12:35 PM 78.8 °F - 55.4 °F 44% 30.03 in 10.0 mi SSW 9.2 mph - N/A   Clear
12:55 PM 80.6 °F 80.5 °F 55.4 °F 42% 30.03 in 10.0 mi SSE 16.1 mph 23.0 mph N/A   Clear
1:15 PM 80.6 °F 80.3 °F 53.6 °F 39% 30.02 in 10.0 mi South 11.5 mph 25.3 mph N/A   Clear
1:35 PM 80.6 °F - 51.8 °F 37% 30.01 in 10.0 mi South 13.8 mph 24.2 mph N/A   Clear
1:55 PM 80.6 °F - 51.8 °F 37% 30.01 in 10.0 mi SSE 13.8 mph 23.0 mph N/A   Clear
2:15 PM 80.6 °F 80.3 °F 53.6 °F 39% 30.00 in 10.0 mi South 17.3 mph - N/A   Clear
2:35 PM 80.6 °F - 51.8 °F 37% 30.00 in 10.0 mi South 13.8 mph 23.0 mph N/A   Partly Cloudy
2:55 PM 80.6 °F - 51.8 °F 37% 30.01 in 10.0 mi South 16.1 mph 21.9 mph N/A   Clear
3:15 PM 80.6 °F - 50.0 °F 34% 30.01 in 10.0 mi SSW 16.1 mph 24.2 mph N/A   Clear
3:35 PM 80.6 °F - 48.2 °F 32% 30.00 in 10.0 mi South 15.0 mph 21.9 mph N/A   Clear
3:55 PM 82.4 °F - 48.2 °F 30% 30.00 in 10.0 mi South 18.4 mph 29.9 mph N/A   Clear
4:15 PM 82.4 °F - 48.2 °F 30% 30.00 in 10.0 mi South 17.3 mph - N/A   Clear
4:35 PM 80.6 °F - 48.2 °F 32% 30.00 in 10.0 mi South 17.3 mph - N/A   Clear
4:55 PM 80.6 °F - 48.2 °F 32% 30.00 in 10.0 mi South 15.0 mph - N/A   Clear
5:15 PM 80.6 °F - 50.0 °F 34% 30.00 in 10.0 mi South 13.8 mph - N/A   Clear
5:35 PM 78.8 °F - 50.0 °F 36% 30.00 in 10.0 mi South 9.2 mph - N/A   Clear
5:55 PM 77.0 °F - 51.8 °F 41% 30.00 in 10.0 mi South 6.9 mph - N/A   Clear
6:15 PM 77.0 °F - 51.8 °F 41% 30.00 in 10.0 mi South 6.9 mph - N/A   Clear
6:35 PM 75.2 °F - 51.8 °F 44% 30.01 in 10.0 mi South 6.9 mph - N/A   Clear
6:55 PM 75.2 °F - 51.8 °F 44% 30.01 in 10.0 mi South 9.2 mph - N/A   Clear
7:15 PM 73.4 °F - 50.0 °F 44% 30.01 in 10.0 mi South 9.2 mph - N/A   Clear
7:35 PM 71.6 °F - 51.8 °F 50% 30.02 in 10.0 mi South 5.8 mph - N/A   Clear
7:55 PM 69.8 °F - 51.8 °F 53% 30.02 in 10.0 mi SSE 5.8 mph - N/A   Clear
8:15 PM 66.2 °F - 51.8 °F 60% 30.02 in 10.0 mi SE 5.8 mph - N/A   Clear
8:35 PM 66.2 °F - 51.8 °F 60% 30.02 in 10.0 mi ESE 5.8 mph - N/A   Clear
8:55 PM 64.4 °F - 51.8 °F 64% 30.01 in 10.0 mi East 4.6 mph - N/A   Clear
9:15 PM 64.4 °F - 51.8 °F 64% 30.01 in 10.0 mi ENE 5.8 mph - N/A   Clear
9:35 PM 64.4 °F - 51.8 °F 64% 30.02 in 10.0 mi East 6.9 mph - N/A   Partly Cloudy
9:55 PM 64.4 °F - 53.6 °F 68% 30.02 in 10.0 mi East 6.9 mph - N/A   Mostly Cloudy
10:15 PM 64.4 °F - 53.6 °F 68% 30.03 in 10.0 mi East 8.1 mph - N/A   Mostly Cloudy
10:35 PM 64.4 °F - 53.6 °F 68% 30.03 in 10.0 mi East 5.8 mph - N/A   Partly Cloudy
10:55 PM 64.4 °F - 53.6 °F 68% 30.03 in 10.0 mi East 6.9 mph - N/A   Clear
11:15 PM 64.4 °F - 53.6 °F 68% 30.03 in 10.0 mi ENE 8.1 mph - N/A   Clear
11:35 PM 64.4 °F - 53.6 °F 68% 30.03 in 10.0 mi ENE 8.1 mph - N/A   Mostly Cloudy
11:55 PM 64.4 °F - 53.6 °F 68% 30.03 in 10.0 mi ENE 8.1 mph - N/A   Overcast